Temp
76 77 81 84 85 88 88 87 90 94 94 94 94 96 96 96 94 93 92 89 87 87 88 88 89 89 89 90 90 90 91 90 90 90 91 91 92 91 91 92 91 90 93 92 91 92 92 93 92 93 92 92 91 91 90 90 90 91 90 90 90 90 90
75 78 76 79 82 87 89 90 87 89 94 95 95 94 96 95 94 94 92 90 89 89 88 89 89 89 89 89 90 90 90 90 91 90 91 90 91 91 93 92 92 90 91 92 92 92 92 93 93 92 92 92 92 91 91 90 90 90 91 90 89 89 89
82 76 81 83 81 81 83 87 87 87 91 95 96 95 95 93 94 93 92 91 89 89 90 90 89 90 90 89 90 90 90 91 91 92 92 93 92 95 93 92 92 93 94 93 92 94 94 93 92 92 92 92 93 91 91 91 90 90 90 90 90 90 88
83 87 87 85 83 79 79 81 86 87 93 93 92 95 94 93 95 94 94 93 91 90 89 90 90 91 91 89 90 89 90 90 91 93 93 94 94 94 93 93 92 93 93 93 94 94 97 93 93 92 91 91 92 92 92 92 92 91 90 89 90 90 89
81 83 85 85 81 81 78 80 83 83 83 95 95 93 93 94 96 95 94 95 94 92 93 93 95 93 92 92 93 92 91 91 92 93 94 94 94 94 93 94 94 94 94 95 94 93 92 92 93 92 91 91 92 92 92 92 92 91 90 90 89 90 90
77 79 80 83 86 88 87 83 82 88 84 91 95 96 96 96 95 96 95 93 92 94 93 93 94 92 92 93 93 94 92 91 91 91 93 94 93 94 94 94 95 94 96 95 96 94 93 93 94 93 93 94 94 94 94 93 93 93 91 90 90 90 91
77 78 79 81 82 84 87 87 87 86 85 91 95 94 94 97 93 93 94 92 93 92 94 96 96 95 92 93 92 93 91 93 92 93 94 95 95 94 94 94 94 96 96 95 95 95 95 93 92 93 93 94 93 95 93 91 91 92 91 90 89 89 88
77 77 79 80 82 84 86 82 83 87 89 87 89 86 84 86 91 95 90 94 94 95 94 97 97 95 92 93 94 94 93 94 94 94 94 95 95 94 95 95 94 95 95 96 95 96 96 94 95 94 94 94 93 93 94 92 91 94 93 91 90 90 94
78 77 78 80 81 83 84 83 82 83 83 85 81 79 79 80 81 86 91 91 93 92 91 97 99 98 93 93 93 93 94 95 94 94 94 96 96 97 97 97 96 95 95 97 97 96 96 96 96 93 93 93 92 92 92 91 92 92 93 92 91 90 92
76 76 78 79 79 80 80 80 81 81 79 78 79 75 77 79 79 81 85 86 87 86 91 96 99 99 95 94 95 95 95 93 95 96 96 97 97 97 98 99 97 96 96 97 99 98 95 96 96 95 92 92 92 92 91 92 92 92 92 92 92 91 90
75 75 76 77 77 77 77 77 77 77 79 78 77 78 79 80 80 82 81 78 80 79 79 85 93 95 96 96 95 96 94 95 97 96 96 97 99 99 99 100 100 98 97 97 98 99 97 94 95 94 93 94 92 92 91 92 92 91 93 93 93 92 92
76 76 74 73 75 75 74 75 76 76 76 79 84 81 80 79 82 80 79 80 80 79 84 81 89 94 92 97 96 94 94 95 96 97 97 97 99 100 100 100 100 100 98 98 97 97 100 96 96 95 93 93 93 93 92 91 92 91 92 94 94 93 94
78 76 74 73 73 74 74 74 74 75 76 79 79 82 86 83 84 84 84 83 82 80 79 82 79 84 96 92 97 94 95 96 96 96 98 97 98 100 100 100 101 101 100 99 98 98 99 100 96 95 95 93 94 94 92 92 93 91 91 92 93 94 93
77 77 75 73 73 73 73 73 74 75 76 76 79 80 82 83 86 84 84 84 84 86 87 84 86 83 91 96 93 92 95 95 97 97 96 97 95 97 100 101 100 99 99 99 97 98 99 100 99 97 96 95 94 94 93 92 92 91 91 91 93 94 94
79 77 75 73 72 73 73 74 73 75 76 76 78 78 80 82 83 85 84 82 83 84 82 82 83 87 93 93 92 92 93 94 96 96 96 96 95 95 97 98 98 98 98 97 98 100 99 100 101 99 96 95 94 94 95 95 93 93 92 91 91 93 94
79 78 76 74 73 74 74 73 74 74 75 75 78 78 80 80 81 82 83 83 85 81 82 82 82 84 87 89 92 93 92 93 93 94 94 94 94 93 95 97 98 100 98 97 98 97 96 96 97 100 99 96 95 95 96 95 96 89 83 85 92 92 95
77 77 77 77 74 75 74 74 73 73 74 75 80 81 80 80 80 82 83 82 82 80 79 80 79 76 80 84 91 91 91 91 92 91 92 92 93 93 93 93 96 96 95 95 96 94 94 96 97 98 100 99 97 95 97 97 98 82 74 75 79 91 93
78 76 76 77 77 75 74 75 74 74 74 75 76 78 78 77 79 80 80 83 83 81 79 79 77 78 82 84 84 87 87 87 87 89 90 91 91 91 91 93 93 92 93 95 96 93 96 96 95 95 97 99 99 98 97 97 88 73 72 73 73 80 92
74 78 77 75 75 74 75 75 76 75 76 77 78 77 79 80 80 78 79 79 81 82 80 79 78 77 76 79 80 82 86 86 87 87 88 89 90 90 90 90 91 92 93 95 95 96 92 92 94 94 95 96 95 98 99 98 83 70 71 71 71 72 83
75 73 74 75 76 76 74 75 75 76 76 77 78 81 81 80 81 81 81 82 83 82 81 79 79 77 76 77 78 81 81 81 84 85 86 86 87 89 89 89 89 92 94 94 93 92 92 94 92 93 92 93 93 93 97 98 84 68 68 69 69 70 75
75 74 73 73 74 75 74 74 75 75 75 77 78 78 79 79 80 80 81 82 82 82 81 82 79 77 78 79 80 80 80 83 84 85 86 86 85 86 87 88 89 90 92 95 94 92 90 92 91 91 92 94 95 94 97 100 78 67 67 66 66 68 72
76 77 74 74 74 74 74 74 74 74 74 76 78 78 79 80 80 79 79 82 82 80 79 78 77 77 78 79 80 81 81 82 82 83 84 85 85 83 83 87 87 87 90 92 95 94 94 93 93 93 93 93 94 95 94 98 77 66 65 64 65 66 81
77 77 78 78 78 76 76 76 76 76 76 78 78 77 78 79 78 78 79 80 81 81 80 77 75 75 75 77 79 79 79 79 79 80 82 83 84 84 85 86 87 89 90 90 92 94 95 93 94 92 93 94 93 93 93 96 82 66 63 62 63 68 84
79 78 79 79 79 80 78 77 78 78 78 78 78 78 79 78 77 77 76 77 79 79 79 78 76 75 75 75 77 76 78 79 80 81 82 82 82 83 84 85 87 89 90 91 91 91 94 95 94 94 93 94 94 95 93 95 85 65 62 61 61 71 85
77 78 78 78 78 78 77 76 76 78 79 79 79 78 79 79 77 75 74 76 77 78 77 76 75 75 75 74 75 76 78 81 82 82 83 83 83 80 75 76 77 79 82 83 90 91 91 91 93 95 95 97 96 89 93 95 88 65 62 60 59 70 86
74 76 77 78 80 78 76 76 77 78 79 79 78 79 80 79 78 76 74 75 77 76 76 75 75 75 75 75 75 77 78 80 80 81 83 84 84 79 73 76 75 75 75 77 77 78 82 90 91 93 95 97 97 97 96 95 95 81 60 60 58 62 84
76 76 76 77 77 74 76 77 77 77 78 79 78 80 82 79 77 75 75 75 75 75 75 76 77 77 76 76 76 77 78 80 81 80 82 84 83 81 75 74 74 75 74 76 76 76 78 82 87 89 91 96 97 97 97 98 95 88 60 59 58 59 70
75 75 76 76 74 75 76 77 76 76 78 78 80 81 81 78 75 74 75 75 75 75 77 77 77 77 77 76 76 77 78 79 78 79 82 82 81 79 76 75 76 77 77 76 77 78 78 81 83 86 90 95 96 96 96 95 88 98 65 60 57 58 60
71 72 72 72 74 76 76 74 74 75 75 78 79 78 77 77 74 74 74 74 75 77 78 77 77 77 76 76 76 76 76 77 77 78 80 81 81 80 79 77 76 76 76 76 77 78 79 80 83 85 88 90 93 93 94 94 92 77 83 60 58 56 57
72 72 72 75 75 74 74 72 73 73 74 75 75 75 75 74 73 73 73 74 77 78 77 77 77 76 76 76 77 76 77 77 78 79 80 80 79 79 79 78 77 77 77 77 77 78 78 79 82 84 86 87 88 92 94 93 96 83 75 70 55 56 55
70 70 71 71 72 72 72 71 70 71 71 73 73 74 74 75 73 73 72 75 77 77 77 76 76 76 75 76 77 77 78 78 78 79 79 79 80 79 79 79 79 76 77 77 77 77 78 79 81 81 83 84 84 83 89 91 87 87 78 65 59 56 55
70 71 71 72 71 71 70 70 70 70 69 71 72 73 73 74 74 72 73 76 77 77 77 77 76 74 74 76 77 77 79 78 79 78 78 77 78 79 81 80 80 80 79 77 77 78 77 77 78 76 77 74 75 75 76 76 77 79 83 77 67 61 57
69 69 69 68 69 68 68 68 68 69 70 69 71 72 74 73 74 73 74 75 77 78 78 77 75 73 74 74 76 77 78 77 78 77 76 77 79 80 81 81 80 80 78 77 76 76 75 75 73 72 72 72 72 72 72 75 78 79 82 81 82 82 74
68 68 69 69 68 68 68 67 67 68 68 68 70 71 72 72 73 73 74 77 78 79 77 75 74 74 73 74 75 76 77 77 75 75 77 77 77 79 80 81 82 81 79 78 76 73 73 74 73 72 72 72 73 74 74 77 78 80 79 78 83 85 84
68 68 68 68 68 68 67 67 67 67 67 68 70 70 70 71 72 73 73 74 75 76 75 74 74 73 73 74 75 75 76 77 77 77 77 76 76 79 80 79 79 77 78 81 78 75 74 74 71 71 73 74 73 72 73 75 77 79 68 72 61 70 77
68 68 68 69 69 68 67 67 67 67 67 68 69 70 70 70 71 72 75 75 75 75 74 74 74 73 73 74 75 75 77 77 77 77 76 78 76 75 75 74 65 69 76 76 72 65 59 59 70 74 75 73 73 76 73 74 77 66 58 55 55 55 58
67 67 67 67 66 66 66 67 67 67 66 68 69 69 70 70 72 72 73 74 74 74 74 74 73 73 74 74 75 75 74 74 75 76 75 75 74 73 72 73 76 58 53 59 63 60 54 50 50 52 55 65 70 70 63 61 57 55 54 54 56 54 52
67 67 66 67 66 66 66 66 66 67 67 68 69 69 69 71 72 72 74 74 74 74 74 74 72 71 72 73 74 73 73 74 73 74 74 74 74 74 72 72 71 74 61 49 53 54 50 49 48 47 47 49 55 63 68 62 56 53 53 52 51 51 51
MSLP
1012.94 1013.22 1012.34 1011.90 1012.02 1011.62 1011.78 1012.02 1011.30 1010.90 1010.98 1011.14 1011.38 1011.50 1011.66 1011.90 1012.22 1012.62 1013.26 1013.86 1014.46 1014.86 1014.86 1015.02 1015.22 1015.38 1015.70 1015.86 1015.98 1016.18 1016.34 1016.62 1016.82 1017.22 1017.42 1017.54 1017.58 1017.78 1018.06 1018.06 1018.38 1018.50 1018.42 1018.78 1018.78 1018.78 1018.78 1018.58 1018.82 1018.94 1019.10 1019.30 1019.46 1019.66 1019.78 1019.86 1020.06 1020.10 1020.18 1020.26 1020.38 1020.50 1020.54
1013.82 1012.94 1013.06 1012.70 1012.38 1011.82 1011.50 1011.38 1011.98 1011.74 1010.98 1010.86 1011.14 1011.38 1011.34 1011.70 1011.98 1012.46 1012.94 1013.46 1013.98 1014.34 1014.58 1014.74 1014.98 1015.18 1015.34 1015.58 1015.62 1015.90 1016.22 1016.42 1016.58 1016.78 1016.98 1017.30 1017.38 1017.46 1017.50 1017.78 1017.98 1018.30 1018.30 1018.30 1018.42 1018.38 1018.46 1018.58 1018.70 1018.94 1019.10 1019.22 1019.38 1019.50 1019.62 1019.78 1019.94 1020.06 1020.10 1020.30 1020.50 1020.58 1020.58
1012.94 1014.02 1012.94 1012.42 1012.62 1012.50 1012.06 1011.42 1011.66 1012.06 1011.54 1011.06 1010.94 1011.30 1011.46 1011.62 1011.82 1012.22 1012.66 1013.26 1013.74 1013.94 1014.14 1014.38 1014.66 1014.82 1015.02 1015.26 1015.54 1015.74 1015.94 1016.14 1016.38 1016.66 1016.94 1017.06 1017.26 1017.22 1017.26 1017.46 1017.70 1017.86 1017.94 1017.98 1018.10 1018.22 1018.22 1018.50 1018.62 1018.78 1018.98 1019.18 1019.14 1019.42 1019.50 1019.66 1019.82 1019.94 1019.98 1020.14 1020.34 1020.46 1020.62
1012.74 1011.98 1011.90 1011.90 1012.06 1012.46 1012.46 1012.18 1011.78 1011.90 1011.22 1011.30 1011.42 1011.18 1011.46 1011.54 1011.54 1011.82 1012.22 1012.74 1013.38 1013.66 1014.02 1014.06 1014.30 1014.50 1014.70 1015.06 1015.26 1015.50 1015.74 1015.86 1015.98 1016.18 1016.42 1016.38 1016.74 1016.86 1017.10 1017.34 1017.54 1017.50 1017.82 1018.02 1017.90 1018.02 1017.90 1018.30 1018.62 1018.78 1018.94 1019.10 1019.22 1019.18 1019.30 1019.46 1019.54 1019.70 1019.86 1020.02 1020.22 1020.30 1020.38
1013.58 1012.78 1012.22 1012.02 1012.78 1012.74 1012.86 1012.54 1012.42 1012.30 1012.42 1010.90 1010.78 1010.94 1011.38 1011.54 1011.42 1011.78 1012.30 1012.42 1012.78 1013.34 1013.30 1013.50 1013.62 1013.90 1014.22 1014.42 1014.66 1014.90 1015.22 1015.46 1015.66 1015.74 1015.94 1016.02 1016.14 1016.46 1016.86 1017.06 1017.30 1017.50 1017.50 1017.54 1017.66 1017.90 1018.14 1018.26 1018.50 1018.70 1018.90 1018.98 1019.10 1019.14 1019.30 1019.34 1019.46 1019.54 1019.74 1019.86 1020.18 1020.06 1020.26
1014.50 1014.06 1013.50 1012.58 1011.98 1011.74 1011.94 1012.54 1012.62 1011.94 1012.66 1011.58 1010.98 1010.82 1010.94 1011.30 1011.50 1011.86 1012.06 1012.46 1012.86 1012.86 1012.90 1013.02 1013.26 1013.62 1014.06 1014.02 1014.14 1014.38 1014.66 1014.94 1015.18 1015.38 1015.62 1015.78 1016.06 1016.30 1016.54 1016.74 1016.82 1017.14 1017.26 1017.38 1017.26 1017.62 1017.90 1018.10 1018.18 1018.46 1018.66 1018.70 1018.82 1018.86 1019.02 1019.22 1019.26 1019.34 1019.58 1019.74 1019.94 1019.98 1020.18
1014.78 1014.38 1014.06 1013.50 1012.94 1012.50 1012.10 1011.94 1012.02 1012.02 1012.22 1011.34 1010.78 1010.98 1011.06 1011.10 1011.98 1012.06 1012.10 1012.50 1012.58 1012.98 1012.94 1012.78 1012.82 1013.14 1013.58 1013.62 1013.90 1014.06 1014.58 1014.74 1014.94 1015.18 1015.22 1015.50 1015.70 1016.06 1016.18 1016.34 1016.46 1016.58 1016.70 1016.86 1017.14 1017.14 1017.62 1018.02 1018.14 1018.22 1018.38 1018.42 1018.58 1018.70 1018.82 1019.10 1019.22 1019.22 1019.34 1019.62 1019.90 1019.94 1020.14
1014.82 1014.74 1014.22 1013.74 1013.42 1012.90 1012.42 1012.62 1012.46 1011.86 1011.42 1011.70 1011.74 1012.10 1012.50 1012.38 1012.18 1012.02 1012.82 1012.54 1012.66 1012.58 1012.62 1012.38 1012.42 1012.66 1013.14 1013.34 1013.54 1013.86 1014.14 1014.30 1014.46 1014.70 1014.90 1015.26 1015.42 1015.78 1015.90 1016.02 1016.26 1016.26 1016.38 1016.70 1016.82 1016.90 1017.14 1017.54 1017.70 1017.94 1018.06 1018.30 1018.50 1018.54 1018.58 1018.86 1019.06 1019.02 1019.10 1019.46 1019.74 1019.82 1019.62
1014.94 1014.82 1014.66 1014.34 1013.98 1013.62 1013.06 1012.98 1013.14 1012.86 1012.50 1012.26 1012.90 1013.30 1013.22 1013.06 1013.26 1013.06 1012.86 1012.82 1012.58 1012.90 1013.02 1012.14 1011.70 1011.90 1012.62 1013.02 1013.38 1013.62 1013.74 1013.86 1014.18 1014.42 1014.70 1014.98 1015.10 1015.38 1015.46 1015.66 1015.82 1015.90 1016.26 1016.38 1016.38 1016.58 1016.78 1016.98 1017.22 1017.54 1017.82 1018.10 1018.26 1018.50 1018.66 1018.74 1018.90 1018.90 1018.94 1019.18 1019.42 1019.66 1019.50
1015.46 1015.22 1014.82 1014.58 1014.34 1014.02 1013.90 1013.90 1013.70 1013.30 1013.42 1013.50 1013.46 1013.98 1013.74 1013.50 1013.50 1013.74 1013.82 1013.78 1013.82 1013.38 1012.86 1012.14 1011.34 1011.50 1012.18 1012.70 1012.94 1013.18 1013.42 1013.74 1013.74 1014.02 1014.34 1014.66 1014.70 1014.94 1014.98 1015.02 1015.38 1015.58 1015.90 1016.02 1015.90 1016.26 1016.54 1016.58 1016.78 1017.14 1017.62 1017.94 1018.18 1018.30 1018.46 1018.62 1018.70 1018.78 1018.82 1019.02 1019.14 1019.34 1019.50
1015.58 1015.42 1015.34 1015.10 1014.90 1014.74 1014.66 1014.58 1014.54 1014.58 1013.98 1013.78 1014.06 1014.38 1014.34 1014.18 1014.22 1013.86 1014.02 1013.98 1014.30 1014.66 1014.50 1013.46 1012.02 1011.74 1011.74 1012.22 1012.70 1012.86 1013.18 1013.42 1013.42 1013.70 1013.98 1014.10 1014.14 1014.42 1014.50 1014.58 1014.74 1015.06 1015.54 1015.66 1015.78 1015.70 1016.02 1016.50 1016.54 1016.90 1017.34 1017.70 1017.90 1018.10 1018.26 1018.34 1018.42 1018.66 1018.66 1018.62 1018.70 1018.94 1019.10
1015.58 1015.70 1015.98 1015.98 1015.42 1015.14 1015.34 1015.26 1015.06 1014.94 1014.98 1014.30 1013.82 1014.42 1014.66 1015.02 1014.62 1014.42 1013.94 1013.46 1013.42 1014.22 1013.54 1013.58 1012.30 1011.54 1011.86 1011.78 1012.30 1012.66 1012.94 1013.06 1013.18 1013.34 1013.50 1013.66 1013.66 1013.82 1013.98 1014.14 1014.34 1014.50 1014.94 1015.26 1015.54 1015.54 1015.50 1016.02 1016.38 1016.58 1017.02 1017.26 1017.42 1017.58 1017.82 1017.94 1018.06 1018.30 1018.38 1018.34 1018.34 1018.50 1018.62
1015.70 1015.94 1016.34 1016.26 1015.82 1015.66 1015.54 1015.54 1015.46 1015.22 1014.98 1014.74 1014.62 1014.26 1013.82 1014.14 1014.10 1013.86 1013.42 1013.10 1012.98 1013.10 1013.78 1013.58 1013.42 1012.46 1011.22 1012.22 1011.90 1012.42 1012.62 1012.70 1012.94 1012.90 1012.98 1013.22 1013.34 1013.22 1013.42 1013.70 1013.86 1014.10 1014.38 1014.66 1015.06 1015.30 1015.42 1015.38 1015.94 1016.18 1016.46 1016.82 1016.98 1017.14 1017.38 1017.58 1017.70 1017.90 1018.10 1018.14 1018.10 1018.14 1018.38
1015.58 1015.98 1016.30 1016.14 1015.70 1015.74 1015.94 1016.02 1015.82 1015.54 1015.34 1015.10 1014.70 1014.26 1013.86 1013.66 1013.58 1013.62 1013.34 1013.54 1013.42 1013.06 1012.98 1013.06 1012.74 1013.18 1011.94 1011.38 1011.94 1012.18 1012.38 1012.30 1012.30 1012.50 1012.62 1012.70 1012.98 1013.10 1013.06 1013.22 1013.46 1013.70 1013.90 1014.06 1014.66 1014.98 1015.02 1015.10 1015.30 1015.70 1015.98 1016.30 1016.58 1016.66 1016.78 1017.18 1017.42 1017.58 1017.70 1017.82 1017.90 1017.90 1018.02
1015.82 1016.18 1016.38 1016.38 1016.14 1016.22 1016.38 1016.38 1016.30 1015.98 1015.82 1015.50 1015.10 1014.86 1014.50 1014.26 1014.02 1013.62 1013.54 1013.78 1013.74 1013.38 1013.50 1013.70 1013.62 1012.94 1011.98 1011.70 1011.98 1012.10 1012.02 1012.06 1012.02 1012.10 1012.38 1012.54 1012.82 1013.06 1013.06 1013.02 1013.14 1013.38 1013.66 1013.90 1014.10 1014.30 1014.50 1014.54 1014.62 1015.06 1015.62 1015.82 1016.10 1016.30 1016.34 1016.62 1016.98 1017.02 1017.22 1017.54 1017.70 1017.62 1017.74
1016.22 1016.22 1016.42 1016.62 1016.58 1016.58 1016.74 1016.82 1016.62 1016.50 1016.22 1015.86 1015.30 1015.10 1014.78 1014.62 1014.42 1014.14 1014.02 1013.98 1013.54 1013.70 1013.46 1013.46 1013.98 1013.62 1012.74 1012.54 1012.02 1011.94 1011.98 1012.02 1012.10 1012.18 1012.30 1012.58 1012.82 1012.98 1013.02 1012.98 1012.90 1013.02 1013.42 1013.66 1013.86 1013.98 1014.14 1014.34 1014.42 1014.54 1014.94 1015.50 1015.74 1015.90 1015.98 1016.06 1016.10 1016.34 1016.58 1016.82 1017.06 1017.30 1017.26
1016.70 1016.58 1016.58 1016.58 1016.66 1016.82 1017.02 1016.94 1016.90 1016.78 1016.50 1016.18 1015.38 1015.10 1015.10 1015.06 1014.78 1014.38 1014.10 1013.98 1013.90 1014.14 1013.94 1013.94 1014.22 1014.66 1014.02 1013.30 1012.30 1012.26 1012.22 1012.22 1012.26 1012.34 1012.50 1012.54 1012.74 1012.82 1012.98 1013.06 1012.90 1012.94 1013.14 1013.42 1013.62 1013.86 1014.02 1014.22 1014.46 1014.46 1014.38 1014.70 1015.14 1015.54 1015.54 1015.46 1015.38 1015.70 1016.18 1016.46 1016.62 1016.70 1016.94
1016.58 1016.86 1017.02 1016.94 1016.90 1017.06 1017.18 1017.06 1017.06 1016.94 1016.82 1016.38 1016.18 1015.90 1015.70 1015.58 1015.22 1015.02 1014.74 1014.18 1014.02 1014.10 1014.34 1014.62 1014.90 1014.82 1014.02 1013.54 1013.38 1012.74 1012.70 1012.82 1012.82 1012.62 1012.62 1012.58 1012.82 1012.90 1012.98 1013.06 1013.14 1013.18 1013.14 1013.26 1013.50 1013.70 1013.74 1014.10 1014.34 1014.34 1014.26 1014.22 1014.38 1014.70 1014.90 1014.94 1014.86 1015.26 1015.70 1016.02 1016.30 1016.42 1016.46
1017.78 1016.94 1017.10 1017.46 1017.34 1017.38 1017.34 1017.30 1017.06 1016.98 1016.82 1016.46 1016.14 1016.06 1015.74 1015.34 1015.26 1015.30 1014.98 1014.62 1014.22 1013.98 1014.50 1014.54 1014.86 1015.06 1014.78 1014.42 1014.10 1013.46 1012.94 1012.78 1012.98 1012.94 1012.86 1012.78 1012.70 1012.78 1012.94 1013.14 1013.30 1013.34 1013.30 1013.34 1013.22 1013.34 1013.86 1014.02 1014.06 1014.26 1014.18 1014.18 1014.30 1014.30 1014.18 1014.34 1014.38 1014.98 1015.30 1015.62 1015.86 1016.10 1016.26
1017.78 1018.26 1018.02 1017.82 1017.58 1017.42 1017.62 1017.34 1017.26 1017.06 1017.02 1016.70 1016.38 1016.02 1015.74 1015.58 1015.46 1015.18 1014.94 1014.38 1013.98 1014.18 1014.34 1014.62 1014.70 1014.82 1015.02 1014.86 1014.50 1013.78 1013.58 1013.46 1013.30 1013.22 1013.06 1012.98 1012.94 1012.78 1012.94 1013.06 1013.22 1013.06 1012.82 1012.90 1012.98 1013.38 1013.62 1013.70 1013.90 1013.86 1014.02 1014.06 1014.14 1014.14 1013.94 1013.86 1013.90 1014.50 1014.94 1015.26 1015.58 1015.82 1016.10
1017.82 1018.02 1018.26 1018.14 1018.06 1017.86 1017.82 1017.66 1017.50 1017.38 1017.26 1016.94 1016.70 1016.46 1016.14 1015.94 1015.78 1015.58 1015.10 1014.62 1014.50 1014.30 1014.46 1014.50 1014.86 1015.02 1014.74 1014.38 1014.06 1013.66 1013.62 1013.34 1013.14 1013.02 1012.86 1012.90 1013.06 1013.10 1013.10 1012.94 1012.90 1012.86 1012.66 1012.54 1012.74 1013.02 1013.30 1013.34 1013.50 1013.54 1013.58 1013.62 1013.74 1013.86 1013.86 1013.58 1013.58 1014.14 1014.42 1014.78 1015.18 1015.46 1015.90
1017.98 1017.86 1018.14 1018.14 1018.10 1018.10 1018.02 1017.82 1017.74 1017.62 1017.54 1016.94 1016.70 1016.70 1016.38 1016.26 1016.02 1015.94 1015.50 1014.70 1014.70 1014.90 1014.86 1014.94 1015.06 1015.02 1014.74 1014.34 1013.94 1013.58 1013.38 1013.34 1013.26 1013.06 1012.94 1012.90 1012.86 1013.22 1013.34 1012.86 1012.74 1012.74 1012.58 1012.42 1012.18 1012.18 1012.46 1012.74 1012.78 1013.02 1013.14 1013.10 1013.22 1013.38 1013.54 1013.10 1013.14 1013.74 1014.18 1014.46 1014.78 1015.18 1015.62
1017.94 1017.90 1017.78 1017.70 1017.70 1017.74 1017.70 1017.70 1017.70 1017.50 1017.26 1016.98 1016.74 1016.82 1016.66 1016.38 1016.26 1016.06 1015.78 1015.54 1015.18 1014.98 1015.06 1015.26 1015.46 1015.50 1015.26 1014.82 1014.30 1013.90 1013.70 1013.62 1013.58 1013.34 1013.10 1012.94 1012.86 1012.82 1012.66 1012.54 1012.38 1012.26 1012.18 1012.46 1012.38 1012.14 1012.22 1012.34 1012.46 1012.50 1012.62 1012.70 1012.78 1013.02 1012.98 1012.78 1012.70 1013.14 1013.58 1014.02 1014.34 1015.06 1015.22
1017.70 1017.70 1017.74 1017.82 1017.66 1017.42 1017.50 1017.74 1017.70 1017.50 1017.26 1017.14 1016.78 1016.74 1016.54 1016.42 1016.50 1016.42 1016.26 1015.98 1015.62 1015.46 1015.50 1015.58 1015.74 1015.58 1015.46 1015.30 1014.94 1014.74 1014.26 1013.86 1013.58 1013.38 1013.14 1013.02 1012.94 1012.66 1012.50 1012.30 1012.22 1012.14 1011.90 1012.30 1012.42 1012.42 1012.02 1011.74 1011.94 1011.98 1012.14 1012.30 1012.34 1012.30 1012.66 1012.46 1012.18 1012.58 1013.06 1013.46 1014.02 1014.38 1014.54
1018.14 1017.98 1017.86 1017.86 1017.86 1017.86 1018.02 1018.06 1017.98 1017.62 1017.26 1017.10 1017.06 1016.94 1016.54 1016.38 1016.54 1016.66 1016.74 1016.38 1016.14 1015.90 1015.86 1016.06 1016.06 1015.90 1015.74 1015.54 1015.18 1014.82 1014.38 1013.86 1013.54 1013.34 1013.02 1012.86 1012.70 1012.94 1013.82 1013.94 1013.90 1013.62 1012.98 1012.94 1012.46 1012.30 1012.14 1012.02 1011.86 1011.62 1011.58 1011.62 1011.70 1011.70 1011.98 1011.90 1011.74 1012.02 1012.50 1013.02 1013.54 1013.94 1013.90
1018.58 1018.38 1018.06 1017.90 1017.62 1017.98 1018.22 1018.10 1017.86 1017.66 1017.42 1017.34 1017.30 1017.06 1016.50 1016.42 1016.58 1016.82 1016.94 1016.78 1016.42 1016.38 1016.42 1016.34 1016.10 1015.90 1015.70 1015.50 1015.26 1014.86 1014.50 1014.02 1013.66 1013.38 1013.10 1012.78 1012.50 1012.98 1014.06 1013.90 1013.82 1014.02 1014.30 1014.18 1014.34 1014.46 1013.66 1012.46 1011.98 1011.70 1011.30 1010.94 1011.02 1011.10 1011.22 1011.46 1011.30 1011.42 1011.94 1012.50 1013.06 1013.34 1013.34
1018.18 1018.26 1018.34 1018.14 1018.14 1018.34 1018.14 1017.94 1017.86 1017.90 1017.70 1017.30 1017.26 1016.94 1016.58 1016.66 1017.02 1017.14 1017.02 1016.90 1016.86 1016.78 1016.62 1016.26 1015.98 1015.78 1015.66 1015.46 1015.22 1014.94 1014.50 1014.10 1013.82 1013.70 1013.30 1012.82 1012.58 1012.58 1013.46 1013.82 1013.98 1013.82 1013.82 1013.82 1013.62 1013.58 1013.14 1012.54 1011.86 1011.62 1011.22 1010.58 1010.30 1010.26 1010.30 1010.38 1010.78 1010.90 1011.46 1011.94 1012.42 1012.82 1013.06
1018.30 1018.34 1018.22 1018.18 1018.38 1018.30 1018.14 1018.02 1017.98 1017.90 1017.66 1017.42 1017.14 1016.82 1016.74 1016.98 1017.34 1017.38 1017.18 1017.06 1017.06 1016.82 1016.42 1016.26 1016.06 1015.78 1015.62 1015.54 1015.34 1015.06 1014.74 1014.46 1014.22 1013.94 1013.46 1012.90 1012.66 1012.78 1013.14 1013.14 1013.06 1012.94 1013.14 1013.18 1013.18 1013.02 1012.74 1012.34 1012.06 1011.74 1011.18 1010.34 1009.94 1009.82 1009.78 1009.54 1009.86 1010.14 1010.86 1011.42 1012.02 1012.42 1012.66
1018.82 1018.86 1018.78 1018.74 1018.42 1018.22 1018.30 1018.38 1018.34 1018.14 1018.02 1017.66 1017.34 1017.30 1017.30 1017.30 1017.46 1017.34 1017.22 1017.26 1016.94 1016.50 1016.34 1016.30 1016.14 1015.94 1015.74 1015.54 1015.42 1015.22 1014.98 1014.66 1014.38 1014.14 1013.62 1013.22 1012.90 1012.82 1012.86 1012.74 1012.50 1012.50 1012.74 1012.90 1012.86 1012.90 1012.82 1012.62 1012.34 1011.94 1011.38 1010.78 1010.10 1009.62 1009.42 1009.30 1009.38 1009.58 1010.18 1010.90 1011.42 1011.94 1012.46
1018.82 1018.90 1018.82 1018.54 1018.50 1018.50 1018.66 1018.70 1018.46 1018.38 1018.14 1017.94 1017.86 1017.70 1017.54 1017.50 1017.50 1017.34 1017.26 1017.14 1016.54 1016.34 1016.26 1016.18 1016.06 1015.94 1015.82 1015.58 1015.34 1015.18 1014.94 1014.70 1014.26 1013.86 1013.58 1013.22 1012.98 1012.82 1012.78 1012.62 1012.38 1012.30 1012.34 1012.38 1012.58 1012.78 1012.82 1012.46 1011.98 1011.50 1011.22 1011.02 1010.62 1010.06 1009.66 1009.34 1009.22 1009.26 1009.58 1010.42 1011.22 1011.66 1011.98
1019.10 1019.10 1018.98 1018.94 1018.90 1018.78 1018.86 1018.90 1018.86 1018.66 1018.42 1018.10 1017.94 1017.78 1017.66 1017.46 1017.46 1017.26 1017.22 1016.70 1016.30 1016.26 1016.22 1016.10 1015.98 1015.94 1015.86 1015.58 1015.26 1015.02 1014.78 1014.54 1014.18 1013.78 1013.58 1013.38 1013.06 1012.94 1012.66 1012.46 1012.26 1012.42 1012.14 1012.14 1012.26 1012.38 1012.54 1012.38 1012.10 1011.82 1011.54 1011.38 1011.46 1011.22 1010.58 1010.02 1010.10 1010.10 1009.94 1010.10 1010.38 1010.90 1011.34
1019.10 1019.02 1018.98 1018.94 1018.90 1018.94 1019.02 1018.90 1018.78 1018.66 1018.50 1018.18 1017.94 1017.74 1017.54 1017.38 1017.22 1017.26 1016.86 1016.30 1016.14 1016.02 1015.90 1015.86 1015.90 1015.98 1015.82 1015.50 1015.14 1014.86 1014.54 1014.38 1014.06 1013.82 1013.70 1013.62 1013.38 1012.98 1012.46 1012.38 1012.26 1012.18 1012.02 1012.06 1012.10 1012.06 1012.22 1012.26 1012.26 1012.46 1012.54 1013.06 1013.10 1013.02 1012.70 1012.30 1012.18 1011.74 1011.02 1010.22 1010.26 1010.50 1010.58
1019.18 1019.14 1019.22 1019.26 1019.14 1019.18 1019.10 1019.02 1018.90 1018.66 1018.38 1018.26 1017.94 1017.74 1017.46 1017.30 1017.14 1016.94 1016.58 1016.30 1015.94 1015.62 1015.50 1015.58 1015.86 1015.94 1015.70 1015.50 1015.18 1014.74 1014.38 1014.34 1014.18 1014.06 1013.90 1013.54 1013.10 1012.86 1012.50 1012.18 1012.22 1012.10 1012.14 1012.14 1012.10 1012.10 1012.18 1012.38 1012.58 1012.74 1012.82 1012.86 1012.82 1012.46 1012.22 1012.02 1011.58 1011.26 1010.78 1010.98 1010.86 1010.46 1010.58
1019.06 1019.10 1019.06 1019.10 1019.14 1019.10 1019.10 1019.02 1018.86 1018.62 1018.42 1018.26 1017.94 1017.70 1017.50 1017.30 1017.10 1016.78 1016.58 1016.18 1015.82 1015.50 1015.50 1015.66 1015.78 1015.86 1015.74 1015.50 1015.18 1014.78 1014.34 1014.26 1014.22 1014.22 1013.90 1013.66 1013.30 1012.90 1012.66 1012.34 1011.98 1011.94 1011.98 1011.98 1012.18 1012.42 1012.26 1012.22 1012.34 1012.54 1012.66 1012.78 1012.62 1012.34 1012.06 1011.42 1010.74 1010.46 1010.78 1011.30 1010.70 1010.10 1009.98
1018.86 1018.90 1018.94 1018.98 1018.98 1018.98 1019.06 1018.94 1018.78 1018.50 1018.34 1018.14 1017.82 1017.58 1017.42 1017.22 1016.94 1016.58 1016.42 1016.22 1015.86 1015.62 1015.62 1015.54 1015.54 1015.62 1015.62 1015.38 1015.06 1014.74 1014.34 1014.10 1013.94 1013.86 1013.82 1013.74 1013.46 1012.86 1012.46 1012.50 1012.66 1012.62 1012.26 1011.66 1011.62 1011.78 1011.86 1011.78 1011.86 1011.78 1011.74 1011.90 1012.14 1012.34 1012.10 1011.50 1011.22 1010.90 1010.70 1011.18 1011.98 1011.94 1011.46
1018.66 1018.74 1018.78 1018.74 1018.70 1018.70 1018.74 1018.66 1018.50 1018.34 1018.18 1017.90 1017.62 1017.42 1017.26 1016.98 1016.70 1016.46 1016.14 1015.94 1015.66 1015.38 1015.38 1015.34 1015.30 1015.38 1015.42 1015.18 1014.90 1014.62 1014.22 1014.06 1013.94 1013.78 1013.74 1013.54 1013.54 1013.42 1012.98 1012.46 1012.42 1012.42 1012.58 1012.38 1011.98 1011.94 1011.74 1011.66 1011.54 1011.10 1011.10 1011.38 1011.26 1011.18 1011.54 1011.26 1010.58 1010.38 1010.70 1011.22 1011.94 1012.10 1011.70
1018.90 1018.86 1018.86 1018.82 1018.82 1018.74 1018.66 1018.50 1018.34 1018.22 1018.06 1017.74 1017.42 1017.18 1016.94 1016.66 1016.34 1016.10 1015.90 1015.70 1015.54 1015.34 1015.14 1015.10 1015.22 1015.26 1015.22 1015.02 1014.74 1014.50 1014.58 1014.46 1014.14 1013.78 1013.62 1013.58 1013.62 1013.58 1013.58 1013.10 1012.34 1012.10 1012.10 1012.02 1011.98 1011.98 1011.90 1011.74 1011.62 1011.38 1011.26 1011.34 1011.14 1010.66 1010.58 1010.42 1010.22 1010.10 1010.34 1010.70 1010.94 1011.18 1010.94
1018.82 1018.94 1019.02 1018.94 1018.82 1018.58 1018.38 1018.22 1018.14 1017.90 1017.74 1017.50 1017.22 1016.98 1016.70 1016.42 1016.10 1015.90 1015.62 1015.42 1015.26 1015.02 1014.86 1014.82 1015.06 1015.26 1015.18 1014.90 1014.66 1014.54 1014.46 1014.30 1014.18 1013.98 1013.70 1013.54 1013.42 1013.42 1013.54 1013.50 1013.10 1012.30 1011.62 1011.66 1011.74 1011.74 1011.66 1011.46 1011.22 1011.06 1010.98 1011.06 1011.10 1010.94 1010.58 1010.26 1010.06 1010.06 1010.14 1010.26 1010.38 1010.34 1010.10
Wind_Speed
2 1 4 4 6 9 8 13 13 13 15 15 15 17 16 15 14 14 14 15 16 16 15 15 14 13 14 12 12 11 10 10 9 9 8 8 7 7 7 7 8 6 6 6 6 5 5 4 5 6 6 6 5 5 4 4 4 3 3 3 2 2 3
4 3 5 3 4 7 7 6 10 12 12 14 14 16 15 16 14 14 14 16 16 16 16 15 15 14 14 13 12 12 12 11 10 8 8 8 7 7 7 7 7 7 6 5 5 5 6 6 6 5 5 6 5 5 5 5 5 4 4 4 4 3 3
11 9 5 5 5 4 6 7 6 9 15 10 13 14 15 14 14 15 15 16 16 16 16 16 16 15 14 13 12 13 13 12 11 11 11 10 11 10 8 7 7 7 8 7 6 7 7 7 6 5 5 5 6 6 5 6 5 5 4 5 5 4 4
10 5 3 3 5 8 9 8 7 7 8 11 13 12 13 15 15 14 15 15 17 17 17 17 16 16 14 14 14 14 14 13 12 12 12 11 11 10 9 8 7 8 7 8 7 6 6 7 7 6 6 5 5 6 6 6 6 6 6 5 5 5 5
11 11 9 5 3 7 6 6 8 5 12 15 15 15 14 12 12 12 12 14 16 17 18 18 15 15 13 14 12 12 14 15 14 12 12 10 9 10 10 10 9 9 8 9 8 7 6 7 8 7 7 6 7 6 6 6 6 6 6 6 5 5 5
11 10 10 9 3 2 3 4 7 10 10 11 13 11 11 13 13 14 14 15 15 16 16 17 16 15 14 15 14 13 13 13 13 12 11 11 10 10 11 11 10 10 10 9 9 8 9 8 8 8 8 8 8 8 8 8 8 8 7 6 6 5 3
11 10 9 8 9 7 5 3 8 13 14 11 8 3 4 11 12 14 14 14 14 15 17 18 17 16 14 14 13 13 14 14 14 14 13 13 12 11 11 11 10 10 9 8 8 9 10 9 8 8 8 8 7 8 7 7 7 7 7 6 6 5 7
12 12 11 10 9 8 7 11 12 4 3 3 3 3 0 6 7 10 9 12 13 14 16 17 16 14 14 13 13 14 14 14 14 13 12 14 13 13 11 11 11 10 10 10 10 9 10 11 10 10 9 9 8 7 7 7 7 8 7 7 7 8 6
12 13 13 12 11 11 12 14 11 10 9 5 4 4 5 2 4 7 8 9 8 11 12 16 16 15 14 13 13 14 14 13 13 13 14 14 13 14 14 12 12 11 11 11 11 10 10 10 11 10 10 9 8 8 8 7 8 8 7 7 8 8 8
13 13 14 13 13 13 13 13 14 11 9 11 12 8 2 3 3 5 7 9 11 8 11 13 14 15 14 13 14 15 14 13 13 14 14 14 13 14 15 13 13 12 12 12 11 12 11 10 10 10 9 10 10 9 9 9 9 8 8 8 8 8 8
11 13 14 15 15 15 15 16 16 14 13 10 11 8 3 6 0 3 2 5 10 8 13 15 12 13 14 14 15 15 14 14 14 14 15 14 13 14 14 14 13 13 13 13 12 12 12 11 10 10 10 11 11 11 10 10 10 9 10 9 9 9 9
12 13 13 14 15 17 17 15 13 15 14 12 10 7 7 4 2 4 4 3 5 10 11 9 14 12 13 13 13 13 14 14 14 15 15 14 14 14 14 13 13 13 13 13 13 12 12 13 12 11 12 12 12 12 11 11 10 10 10 11 10 10 9
11 12 12 13 14 14 15 16 17 15 15 13 13 11 7 8 6 7 5 4 5 5 7 7 10 12 11 12 13 12 13 14 14 13 14 14 13 12 13 13 13 14 13 13 13 13 13 13 13 12 13 13 13 13 12 12 12 10 10 10 10 10 10
12 13 13 12 15 17 16 15 16 16 15 16 15 14 13 10 10 9 8 8 3 3 7 6 9 12 11 10 11 11 12 12 13 13 12 12 11 12 13 13 13 12 12 11 14 14 14 14 14 13 13 13 13 13 12 12 12 12 11 11 11 11 10
12 14 14 14 15 15 15 16 15 15 16 15 15 16 15 12 11 8 9 9 6 6 7 8 10 11 11 10 9 9 10 9 10 11 11 12 11 12 12 12 12 11 11 11 12 13 13 14 14 14 14 13 13 13 13 13 13 11 12 12 12 12 12
12 13 13 14 14 14 13 14 15 15 15 15 15 14 13 12 11 10 10 9 9 10 9 7 7 8 6 7 7 8 8 8 8 9 10 11 12 12 12 13 13 13 13 12 12 11 11 11 12 14 14 14 14 14 13 12 12 12 16 14 12 13 12
11 12 13 13 12 13 13 13 13 14 14 14 14 13 12 12 12 12 11 10 10 10 9 10 8 9 10 8 7 8 7 7 8 9 9 9 11 11 11 12 12 11 10 11 11 11 9 10 13 14 14 15 14 15 13 13 12 16 17 17 16 13 12
9 10 12 12 12 12 12 13 13 13 13 13 13 13 12 11 10 10 11 11 11 9 8 7 7 10 9 7 10 8 7 7 8 9 9 9 10 10 11 11 11 10 11 12 13 11 13 13 13 11 13 13 14 15 14 13 14 17 19 19 18 15 12
9 9 11 11 11 12 12 12 12 13 13 13 12 11 11 11 10 10 10 10 9 8 8 8 6 6 10 9 9 9 7 7 9 10 9 10 10 10 10 11 11 12 13 14 13 13 12 12 13 13 13 13 12 14 15 14 14 16 20 20 20 20 16
7 7 8 9 11 11 11 11 11 12 13 12 12 13 12 12 12 10 10 10 9 8 8 8 8 4 5 9 8 7 6 7 8 9 9 9 9 11 12 12 12 13 13 13 13 13 13 15 14 13 12 13 13 12 13 14 12 19 20 20 20 20 17
6 7 8 8 10 11 11 11 11 11 12 12 12 12 11 11 11 11 10 9 10 10 10 9 8 9 9 9 9 6 5 6 8 9 9 9 10 10 12 12 13 14 13 13 14 14 14 14 15 14 14 15 14 14 15 15 13 17 21 21 21 21 16
5 6 7 7 8 8 9 11 11 11 11 10 10 10 11 11 11 10 10 10 10 10 10 10 10 10 11 10 9 10 8 7 7 7 7 9 9 10 13 13 13 14 12 12 13 13 13 13 13 14 15 15 15 15 16 16 17 17 19 20 20 21 12
5 6 7 7 8 7 7 8 10 10 10 10 9 10 11 10 11 11 10 11 11 10 10 10 10 11 10 11 12 12 11 9 9 9 7 8 11 12 14 15 14 14 12 13 13 14 14 14 14 12 14 15 15 16 14 15 15 18 20 21 22 15 10
5 5 7 7 7 7 7 9 9 9 9 10 9 10 10 9 10 10 11 10 11 10 10 11 11 11 11 11 11 11 12 11 10 10 9 9 10 11 11 11 12 12 12 12 12 12 14 14 12 13 13 15 16 15 15 15 15 18 20 21 21 17 12
7 7 7 7 8 8 9 9 9 9 8 9 9 10 10 9 9 9 10 11 11 10 10 10 10 10 11 12 12 11 11 11 11 11 11 11 11 5 8 11 10 9 9 8 10 8 9 9 12 13 13 14 16 15 16 16 14 17 19 21 21 18 11
7 7 8 8 7 9 9 8 9 8 9 9 8 10 10 8 8 9 9 10 10 9 10 10 10 9 9 10 11 11 11 11 11 11 11 12 11 0 1 5 5 5 9 8 7 8 10 10 11 12 13 14 15 15 16 16 15 14 21 20 21 22 13
7 7 8 9 9 10 8 8 8 9 10 9 8 9 9 8 9 10 9 9 9 9 10 10 10 10 9 9 10 11 11 11 11 13 13 12 11 6 4 4 7 6 6 6 6 9 10 11 11 12 14 15 15 15 17 15 16 12 20 21 22 23 19
8 8 8 8 9 8 8 8 9 9 10 10 10 10 9 9 9 9 9 9 9 10 9 9 10 10 10 10 10 11 11 11 11 11 11 11 10 7 2 6 9 9 8 6 7 9 10 9 9 11 14 14 14 15 16 15 16 14 17 21 22 22 24
8 9 9 10 9 9 9 9 10 10 10 10 10 10 10 11 11 10 8 9 10 9 8 9 9 10 10 10 9 9 10 11 11 10 9 9 9 9 7 6 7 7 7 8 8 9 8 8 10 12 13 14 13 12 12 12 11 14 11 19 22 23 22
8 8 9 9 10 10 11 10 10 10 11 11 10 10 10 10 11 10 11 11 9 9 9 9 9 9 10 9 9 9 9 10 11 10 10 10 9 9 8 6 6 7 6 7 9 10 9 9 11 12 13 13 14 13 12 10 12 12 13 15 20 19 22
9 9 9 9 10 10 10 10 12 12 13 11 11 10 10 10 11 12 12 11 9 9 10 10 9 9 9 10 9 9 8 9 10 10 8 10 10 10 9 7 7 7 7 8 7 9 11 11 11 12 12 10 10 10 11 9 8 10 9 17 20 22 22
8 9 10 10 10 10 11 11 12 12 13 12 12 11 10 10 10 13 12 11 10 10 10 9 10 10 10 10 10 10 9 10 9 9 10 10 9 10 9 8 7 8 7 7 8 9 9 9 9 9 9 8 9 10 11 10 12 13 12 8 13 16 22
9 9 10 11 11 12 11 12 12 13 13 13 13 12 11 12 11 11 12 12 11 10 10 10 10 11 11 10 10 10 9 9 8 8 9 10 8 8 9 8 7 7 7 7 7 5 6 7 6 6 8 10 9 10 9 10 10 11 11 6 6 7 9
9 10 10 11 12 12 12 12 13 14 14 13 13 12 12 12 12 12 12 13 13 12 11 10 9 10 11 12 11 10 9 8 8 9 7 9 10 9 8 9 8 8 8 8 5 5 5 4 5 5 7 7 8 9 10 10 10 7 5 10 12 8 6
9 10 11 12 12 12 11 12 14 14 15 15 13 13 13 13 13 13 13 12 12 12 11 10 10 10 11 11 10 9 8 8 7 7 7 8 9 10 9 9 9 10 11 10 7 8 8 6 5 6 6 5 6 8 10 10 10 4 3 2 4 6 5
10 11 12 12 12 13 13 14 14 15 15 15 14 14 14 14 13 13 13 12 12 12 12 11 10 9 10 10 9 9 8 7 8 8 7 8 8 10 11 12 11 9 9 10 9 5 9 7 8 7 5 6 7 6 8 9 8 6 8 12 8 12 12
11 11 12 13 14 15 14 14 15 16 17 16 15 15 15 14 14 13 13 12 12 13 12 11 9 10 10 10 9 8 8 8 8 8 7 7 8 9 10 11 11 11 14 14 14 15 16 15 14 12 10 9 8 9 11 13 15 17 18 20 20 12 14
11 11 12 12 13 14 15 15 16 16 16 15 15 15 15 15 14 14 14 13 13 13 13 11 10 11 11 10 10 9 9 8 8 9 8 8 9 9 10 10 11 12 9 13 14 14 17 18 16 13 13 13 12 9 9 12 14 14 18 19 15 14 11
Wind_Direction
337 96 222 235 205 210 199 213 207 196 192 188 189 192 190 189 188 178 179 178 182 182 181 180 183 183 186 186 187 187 191 188 190 192 195 198 198 196 195 195 193 196 187 188 189 183 183 184 171 176 163 171 178 166 171 171 181 190 183 177 213 201 213
143 188 182 205 251 251 227 221 174 226 204 192 193 192 195 189 188 185 180 178 182 183 181 183 182 184 186 186 186 188 188 191 192 190 195 192 198 202 200 197 199 190 202 189 179 191 177 183 179 182 175 175 182 174 177 179 188 191 190 186 198 200 206
109 160 195 201 247 275 272 257 239 209 207 204 197 194 197 193 190 189 181 179 183 183 184 183 183 185 185 185 187 187 189 193 192 194 196 195 194 201 195 199 200 196 197 192 187 185 182 182 185 181 192 189 187 180 186 183 185 193 197 183 200 197 200
19 43 112 120 171 190 221 249 252 256 217 189 210 196 200 197 192 189 188 185 183 184 185 184 184 185 184 184 187 187 190 192 195 196 200 203 193 199 193 195 202 204 194 199 193 202 177 180 180 184 189 194 201 194 192 197 192 193 200 196 204 200 204
32 21 14 121 194 165 202 213 243 250 246 197 199 193 193 201 195 189 195 193 190 191 187 187 186 187 187 186 188 187 189 191 194 198 200 204 200 195 200 199 192 208 199 197 197 188 199 184 187 188 187 200 198 199 202 197 204 194 203 203 215 207 205
43 36 22 13 64 14 100 160 222 206 229 221 212 194 193 192 197 199 196 195 199 199 196 190 189 184 189 189 192 189 187 190 192 196 198 199 200 201 199 202 198 199 203 204 189 194 190 205 194 188 197 194 205 200 201 199 203 201 198 206 213 210 233
39 44 45 32 21 39 49 62 210 200 196 207 194 216 231 196 197 210 197 202 202 205 203 194 190 185 190 190 194 188 187 187 190 193 195 198 197 205 203 199 207 199 205 195 206 194 190 197 203 197 200 208 202 208 199 200 203 206 202 203 208 209 190
39 40 41 41 42 31 36 53 40 10 209 120 168 198 164 342 270 205 211 213 207 213 209 200 194 188 186 193 191 193 189 192 188 192 193 198 196 201 202 204 200 204 202 203 198 207 199 193 199 201 200 203 206 214 208 195 208 212 206 205 206 211 215
42 39 40 37 37 42 34 43 49 47 33 23 356 13 10 267 283 301 240 245 230 217 227 216 197 188 184 191 190 192 191 195 191 190 193 197 198 201 201 201 201 199 203 208 198 197 212 198 204 194 197 202 202 203 211 205 203 216 218 212 207 214 228
40 36 37 38 37 35 38 33 28 44 64 53 65 66 38 294 315 300 283 244 226 262 246 234 206 188 183 187 192 192 191 195 195 193 195 198 200 202 204 201 200 198 204 207 210 195 199 210 205 195 194 198 202 202 208 204 208 207 214 220 216 216 220
45 40 34 33 34 36 35 30 28 24 24 71 67 59 49 63 315 259 277 334 312 229 236 240 203 213 180 189 192 193 195 197 200 197 198 201 200 202 204 207 202 197 204 207 213 208 192 197 206 202 194 201 200 203 204 208 209 209 215 214 213 218 218
48 44 39 33 33 36 32 29 27 26 25 20 84 123 118 126 100 103 156 200 201 289 309 308 251 191 190 188 193 196 197 199 201 204 202 204 206 203 203 204 210 203 197 209 211 212 209 192 199 203 199 203 203 203 203 206 210 210 216 219 213 211 217
52 51 42 35 40 38 33 29 25 25 23 27 27 25 48 55 45 29 19 170 175 174 265 296 317 288 191 193 198 197 202 199 204 206 206 203 211 210 205 206 207 211 206 200 211 211 213 204 196 200 203 201 206 206 203 205 209 210 212 221 223 216 212
63 56 46 38 41 36 33 29 27 24 23 21 20 17 21 27 35 27 15 36 38 208 200 235 252 258 249 203 200 201 202 205 204 208 209 207 206 216 214 209 209 207 213 205 204 213 213 215 202 196 204 203 205 208 203 202 207 208 211 213 220 223 216
56 52 45 40 40 40 32 28 25 24 24 21 20 18 16 12 15 19 25 7 5 19 6 337 270 245 233 214 211 204 206 204 212 209 205 212 206 210 219 216 209 207 208 212 213 208 215 217 216 204 200 204 204 207 207 204 205 207 206 209 211 221 223
45 48 48 41 39 40 35 30 25 24 21 22 21 22 19 17 6 11 10 9 6 5 4 339 327 276 261 268 226 220 214 212 221 217 213 208 209 207 213 220 217 212 208 209 213 216 211 217 219 218 205 203 203 206 208 209 208 202 201 200 208 211 220
45 41 40 38 40 38 32 29 27 22 20 23 21 23 24 16 8 2 2 360 8 7 4 354 339 334 320 273 234 235 247 241 223 225 225 211 212 211 213 218 223 220 209 207 210 213 208 215 219 221 219 208 206 207 210 211 213 189 191 198 207 213 214
48 43 36 29 31 32 26 23 25 20 18 19 21 20 16 14 9 8 2 357 358 4 8 352 355 318 291 289 271 244 235 240 253 237 225 223 216 215 215 217 222 227 222 216 213 208 216 212 216 221 225 222 216 212 213 216 211 182 186 193 200 209 216
31 26 36 22 21 25 22 18 17 19 14 12 16 18 17 15 11 11 0 359 348 4 359 352 346 329 319 307 306 299 260 235 233 239 240 231 221 219 218 218 219 220 222 220 219 216 213 218 214 215 221 227 228 226 221 220 204 181 187 192 197 202 212
56 36 20 22 16 20 18 12 13 13 9 7 11 9 10 13 4 8 357 353 359 7 4 2 350 351 293 284 280 286 307 288 264 246 237 240 243 228 222 219 217 219 218 219 214 215 216 218 221 218 216 222 227 230 234 233 196 180 186 193 196 201 204
37 47 32 24 20 16 13 8 8 6 4 2 4 5 359 10 7 360 359 355 2 1 3 5 2 348 342 336 320 308 292 288 264 248 243 234 234 240 238 228 223 220 222 220 214 211 211 214 214 216 216 218 221 225 229 232 213 180 188 191 195 200 200
33 30 35 21 25 12 15 4 4 0 355 349 357 3 356 2 360 358 360 356 12 6 360 360 358 354 346 337 331 334 338 329 323 300 267 248 238 230 232 236 231 230 226 230 226 218 215 216 221 218 216 218 220 222 226 230 215 184 190 193 195 196 198
30 23 22 19 15 5 22 11 356 355 341 347 350 1 352 357 357 353 357 359 358 357 8 1 359 354 345 339 338 338 334 327 316 309 303 274 249 236 233 233 233 232 231 229 234 233 221 217 218 220 222 220 218 223 226 228 216 191 189 192 196 188 202
18 24 14 7 0 351 14 7 350 343 337 339 347 360 345 353 355 355 353 355 355 356 355 357 354 347 343 339 337 331 324 318 309 299 297 292 280 264 256 246 242 240 230 232 234 239 239 227 223 220 221 225 224 220 223 228 216 191 191 192 188 187 198
356 360 357 0 351 354 2 350 335 325 328 336 346 350 332 348 352 352 352 351 350 344 347 350 348 344 340 335 332 326 322 318 314 307 290 287 286 319 352 321 310 305 308 281 270 258 259 262 244 232 226 226 228 224 225 230 221 190 191 191 185 191 199
348 348 343 341 347 6 342 326 320 320 330 331 349 329 326 343 345 345 345 346 340 343 346 344 340 338 335 334 326 323 320 317 316 314 308 295 286 275 178 279 305 320 327 328 304 290 272 261 258 256 242 232 228 227 222 229 234 195 191 187 188 192 199
349 350 344 337 351 346 321 324 329 328 322 329 329 319 324 345 337 334 335 334 331 340 340 337 333 331 334 331 328 322 318 320 321 321 315 312 301 291 126 24 310 263 225 230 219 228 236 245 247 244 242 237 236 232 227 226 228 201 186 188 188 193 198
350 348 340 345 337 320 325 326 325 321 322 324 316 320 331 333 323 320 322 319 321 329 329 330 329 328 329 327 330 326 320 323 322 314 308 309 315 302 156 168 221 239 224 214 234 237 244 252 256 259 253 244 236 236 237 230 214 227 182 188 190 192 199
346 342 341 334 329 339 337 329 324 321 322 319 324 330 322 318 314 310 306 305 314 320 322 324 322 325 322 322 322 326 322 317 318 314 307 306 307 305 281 227 225 214 225 241 248 254 270 268 255 251 251 249 251 252 241 236 227 217 187 187 188 192 197
341 337 332 329 333 336 338 324 322 321 318 320 318 313 312 306 304 302 301 301 309 311 314 313 317 317 318 317 317 318 320 316 310 312 307 307 305 297 297 266 258 258 243 241 249 253 255 256 254 249 245 246 246 247 252 248 240 216 183 173 189 191 196
331 329 329 333 330 334 327 326 321 317 313 314 314 311 307 303 296 295 293 299 302 305 308 311 310 314 315 315 313 315 316 313 310 313 319 321 314 307 300 286 261 254 251 247 244 250 254 260 264 262 261 267 267 266 266 275 284 267 188 175 183 191 195
323 327 326 326 326 332 327 317 311 310 309 310 311 310 304 298 295 291 295 298 297 299 297 298 308 311 312 310 312 314 313 313 314 318 327 321 310 303 292 290 284 276 266 250 251 253 255 260 268 275 291 302 305 314 314 324 322 306 284 218 196 198 199
321 320 323 323 325 325 317 318 310 307 308 308 310 310 307 301 298 297 297 294 290 286 286 300 309 306 304 308 311 310 308 314 317 324 317 308 309 303 298 284 277 283 283 277 275 276 277 274 277 286 280 270 263 262 262 257 250 255 270 295 242 214 209
319 318 317 319 317 316 313 307 307 305 306 305 305 303 301 298 294 291 289 288 289 291 295 296 298 300 303 304 305 302 306 310 313 310 308 313 316 309 307 309 303 284 271 270 271 274 278 292 297 278 265 270 275 278 277 268 260 249 272 285 271 239 201
308 314 315 311 313 312 307 309 305 304 302 300 300 298 296 296 294 291 288 286 284 284 281 282 284 290 296 298 295 297 300 298 304 311 314 314 305 305 313 310 307 311 312 307 285 254 248 228 211 241 253 260 246 255 263 268 273 257 116 203 52 4 345
313 313 313 312 309 309 307 302 302 301 300 299 299 294 292 290 289 288 285 285 282 278 275 277 281 287 291 291 292 294 301 311 312 308 310 309 309 311 310 312 300 268 281 294 305 285 268 246 237 236 247 260 258 254 271 282 289 307 284 257 222 169 183
308 307 306 311 309 306 305 304 301 300 298 297 294 293 290 288 285 285 284 281 278 275 273 273 279 283 285 288 288 301 313 304 299 305 308 304 304 309 311 308 306 275 236 236 260 276 277 265 255 257 252 239 262 261 248 263 279 286 279 270 261 229 174
308 306 307 304 301 300 301 303 303 301 300 298 297 294 293 288 284 283 282 277 273 270 267 267 270 273 278 284 288 293 293 295 297 296 295 301 300 301 305 309 306 310 280 225 233 253 265 270 266 256 246 243 241 257 282 278 276 278 285 276 261 236 208